Location: Cumbre Roja
(10.2766°N, 67.0675°W)
Time: 02:02:03
(UTC+00:00)

Cosmos 2082 Rocket - Pass Details

Date: 18 November 2025
Orbit: 834 x 851 km, 71.0° (Epoch: 08 December)

Event Time Altitude Azimuth Distance (km) Brightness Sun altitude
Rises 22:47:43 0° 3° (N) 3,370 5.1 -11.4°
Reaches altitude 10° 22:50:30 10° 15° (NNE) 2,438 4.3 -12.0°
Maximum altitude 22:55:10 27° 72° (ENE) 1,550 3.0 -13.1°
Drops below altitude 10° 22:59:51 10° 129° (SE) 2,448 4.3 -14.2°
Sets 23:02:38 0° 141° (SE) 3,385 5.1 -14.9°
